Vertical_Velocity
-4 -2 4 1 1 -3 7 -12 11 -26 3 -7 -2 -1 -3 -1 1 0 -2 -4 -1 1 5 7 4 1 1 4 2 3 1 3 2 -1 1 1 -0 0 -0 -0 -1 -2 -1 -2
-5 -3 3 2 -2 0 0 -2 2 3 -11 1 -5 -2 2 -1 1 -1 2 -2 -0 0 3 6 3 3 2 1 1 2 1 2 0 -0 -0 -0 -0 0 -1 -2 -1 -2 -1 1
-6 1 -0 5 -0 -0 -1 0 1 1 -16 -1 -3 -1 -0 -1 2 1 0 -2 -1 -0 4 3 3 2 -1 -2 1 2 3 3 2 0 0 0 0 -1 -2 -1 -0 1 -1 -3
-2 -0 3 10 -0 1 3 -2 -0 1 -2 -0 1 -1 3 -0 1 3 -0 0 4 2 3 2 3 3 0 1 6 3 2 2 1 0 -0 -0 -1 -2 -1 0 1 -2 -2 -1
3 1 -11 1 1 1 2 -4 2 -0 -2 -2 -2 1 -3 -2 5 1 0 2 1 4 3 -0 0 2 3 -0 2 3 2 -0 -1 0 -1 -2 -1 -1 1 1 -2 -1 -2 -0
-1 3 1 4 1 -0 1 -1 2 2 -0 1 -1 -1 4 3 3 0 3 1 -5 -0 0 2 1 2 2 -0 -0 0 1 0 1 -2 -1 -1 -0 -2 1 -1 -1 -0 -1 -4
-1 0 -8 -1 1 0 -0 -5 -0 2 1 0 0 5 1 2 -1 3 3 -4 2 5 3 2 0 1 1 0 2 1 0 -1 -2 -3 -2 -3 2 1 -1 0 -1 -3 -1 -1
3 3 -4 -0 -0 5 5 -4 2 -2 2 -1 2 -2 -2 4 0 0 3 4 1 -4 -1 1 2 1 -2 1 1 -0 -1 -4 -4 -1 2 1 -0 1 -0 -3 -2 -1 -1 1
-2 -9 -1 -1 -0 1 -1 0 -1 3 -5 0 -1 -0 1 1 0 1 1 2 5 3 -2 3 2 8 -2 -1 -1 -4 -3 -1 -0 2 1 1 -0 -2 -1 -1 -2 -2 -2 -4
4 -2 -2 0 -1 -0 1 1 -1 -2 0 3 -2 1 -0 -1 -2 -1 1 -1 1 0 1 -3 2 1 3 -3 -1 -1 -0 2 2 1 -0 -2 -1 -1 -1 -1 -0 -2 -3 -2
-4 -4 -2 1 1 0 1 2 -0 -1 0 2 2 1 1 1 1 -1 1 1 3 2 1 -0 1 0 2 -1 0 1 2 1 0 -1 -1 -1 -1 -0 -0 -3 -3 -2 1 -1
-0 1 2 2 -1 1 -1 2 1 0 -2 0 2 -1 3 2 2 0 1 1 0 1 1 -1 1 -0 0 2 3 2 -0 -1 -1 -1 -1 -0 -0 -3 -3 -1 1 1 -1 -1
1 -0 -0 1 -2 1 -0 0 0 0 2 -1 2 1 3 -1 1 1 -0 -1 2 -0 -0 -1 1 1 2 1 0 -1 -0 -1 -1 -0 -1 -3 -3 -0 3 1 -3 -2 -0 -0
-0 1 1 0 -0 0 3 -2 5 0 -0 1 -0 2 1 -1 -0 0 -2 -1 0 0 0 1 1 -1 0 -0 -1 -0 -0 -1 -1 -2 -2 -1 -0 -0 -2 -5 -5 0 6 -0
2 1 -1 -0 -1 5 -2 -4 6 -1 2 -3 1 -0 3 -1 -1 -2 -2 -1 2 3 0 1 0 -2 -1 -1 0 -1 -2 -2 -2 -1 -0 -0 -1 -1 -1 -1 -2 -3 -7 -3
1 1 -0 3 -3 4 -4 -4 2 -2 3 -3 -3 0 0 -0 -3 -1 2 5 -1 -4 -1 0 0 -0 -1 -1 -2 -2 -1 -1 0 1 0 0 -1 -2 -2 -2 -2 -2 -0 0
-3 2 2 1 -1 -1 -0 -2 2 5 -5 -1 -1 -1 -1 -1 1 -0 -0 1 2 0 0 0 -1 -1 -2 -2 -1 0 0 0 0 -0 -1 -2 -2 -2 -2 -2 -2 -0 0 2
-1 -2 -0 5 -4 -6 -2 1 -1 1 -1 -1 -1 -0 0 2 -2 -1 -0 -1 -1 -1 -0 -0 -0 -1 -1 -0 -0 -0 -0 0 -0 -1 -2 -2 -1 -1 -2 -2 -2 -1 -3 -1
-1 0 3 -0 -5 -1 1 -1 -0 2 -0 1 -2 -1 2 1 0 -1 -0 0 1 -1 -2 -0 -0 -1 -0 -0 -0 0 -0 -1 -2 -2 -2 -1 -1 -2 -2 -0 -1 -0 -2 -2
-1 -0 0 1 2 -1 -6 0 1 -1 -1 -2 0 -1 -1 -0 -0 -1 1 -2 1 1 -0 -1 -1 -0 0 -0 -0 -0 -1 -1 -1 -1 -1 -2 -1 -1 -0 -1 -2 -1 -3 -1
2 2 2 2 -0 0 3 1 -1 -2 -2 3 0 -2 -2 -1 1 0 -1 -2 -1 0 -1 -1 -0 -1 -1 -0 0 -0 -1 -0 -1 -2 -1 -1 -1 -1 -2 -1 -1 -1 -1 0
1 0 0 1 2 0 5 2 2 0 -1 -1 -1 1 -2 -3 -1 -1 3 5 -2 -0 -0 -0 -2 -0 1 0 -1 -1 -1 -2 -2 -1 -1 -2 -2 -1 -1 -1 -2 -1 -1 0
2 3 2 2 1 -1 1 3 2 3 -4 1 -0 -1 1 -0 0 -1 -4 -1 0 -1 -1 -1 -0 0 -1 -2 -1 -1 -2 -1 -1 -0 -0 -1 -0 -1 -0 -2 -2 -2 -1 -1
-1 0 1 2 3 3 -1 1 3 0 1 2 1 2 -0 -5 -2 -1 0 -1 -2 -1 -1 0 -0 -1 -1 -1 -1 -2 -1 -0 -0 -0 1 0 -1 -1 -1 -1 -0 -1 1 0
2 1 1 1 1 -2 1 -1 -1 1 2 5 2 2 2 1 7 -3 -0 -1 -1 -0 -0 -1 -1 -1 -1 -1 -1 -1 -1 -0 -1 -1 -0 -2 -1 -0 1 0 -0 0 -1 -1
2 2 2 3 0 -0 2 1 -2 -1 -1 -2 -0 0 -0 0 1 -1 -2 -1 -0 -1 -2 -2 -1 -1 -1 -0 0 -1 -1 -1 -0 0 -1 -1 0 1 0 -0 -0 1 -0 0
1 3 2 2 5 2 -3 -4 1 -6 -2 2 -1 -2 1 -0 -1 -1 -0 -1 -2 -2 -1 -0 0 -0 0 1 0 -1 -1 -1 -0 -2 -2 -0 0 1 -0 -1 1 0 0 0
Height
1433 1426 1422 1419 1416 1412 1413 1406 1405 1366 1374 1368 1369 1371 1370 1370 1370 1365 1366 1369 1373 1376 1378 1379 1380 1386 1394 1403 1411 1418 1426 1433 1439 1446 1453 1458 1462 1466 1469 1471 1473 1474 1474 1474
1426 1415 1412 1410 1402 1399 1391 1387 1390 1388 1380 1370 1370 1369 1365 1365 1364 1362 1364 1369 1374 1377 1379 1379 1382 1388 1397 1405 1414 1422 1428 1435 1441 1448 1454 1459 1463 1466 1468 1470 1471 1472 1471 1471
1418 1409 1402 1391 1392 1393 1386 1387 1381 1381 1370 1368 1366 1365 1364 1363 1361 1360 1364 1368 1374 1377 1379 1381 1386 1393 1401 1409 1418 1426 1432 1437 1443 1449 1455 1459 1463 1465 1467 1469 1469 1469 1469 1468
1421 1410 1390 1384 1386 1387 1383 1378 1376 1371 1367 1367 1367 1366 1365 1361 1359 1359 1364 1370 1374 1377 1380 1385 1391 1398 1405 1414 1422 1428 1435 1439 1445 1451 1456 1460 1463 1465 1466 1467 1467 1467 1466 1465
1422 1410 1388 1379 1382 1383 1383 1375 1368 1368 1367 1368 1365 1364 1364 1363 1362 1363 1367 1371 1374 1380 1385 1391 1398 1405 1411 1419 1426 1433 1437 1442 1448 1453 1457 1461 1463 1465 1465 1465 1465 1464 1463 1461
1422 1417 1394 1376 1380 1381 1380 1375 1371 1371 1368 1368 1365 1359 1367 1366 1368 1369 1372 1376 1379 1385 1391 1398 1405 1411 1417 1423 1430 1435 1440 1444 1449 1454 1458 1461 1463 1464 1464 1464 1463 1462 1460 1457
1423 1418 1391 1376 1379 1380 1376 1383 1375 1373 1373 1370 1368 1372 1374 1373 1373 1374 1376 1381 1386 1392 1397 1403 1409 1416 1421 1426 1432 1437 1442 1447 1451 1455 1459 1461 1462 1462 1462 1462 1460 1459 1456 1454
1419 1411 1397 1377 1377 1376 1377 1374 1372 1373 1372 1373 1374 1375 1375 1375 1376 1379 1380 1385 1391 1395 1401 1408 1414 1419 1424 1429 1434 1440 1444 1449 1453 1456 1458 1460 1460 1461 1460 1459 1457 1455 1453 1450
1392 1384 1375 1377 1376 1376 1375 1374 1372 1370 1371 1370 1373 1375 1376 1378 1380 1384 1387 1390 1394 1399 1405 1412 1418 1424 1427 1432 1437 1442 1447 1451 1454 1456 1457 1458 1459 1458 1457 1456 1454 1451 1449 1445
1389 1374 1375 1374 1374 1374 1373 1372 1370 1367 1368 1371 1373 1375 1377 1380 1383 1387 1391 1395 1399 1404 1409 1414 1422 1427 1432 1436 1441 1445 1449 1451 1453 1455 1456 1457 1457 1456 1455 1453 1450 1447 1444 1441
1381 1375 1372 1373 1373 1372 1372 1370 1368 1368 1367 1370 1373 1376 1379 1381 1385 1389 1393 1398 1403 1408 1412 1418 1425 1431 1436 1440 1444 1447 1449 1451 1453 1455 1456 1456 1455 1454 1452 1450 1447 1444 1441 1437
1372 1375 1375 1376 1374 1373 1373 1371 1370 1370 1371 1372 1375 1376 1380 1383 1387 1391 1395 1401 1407 1413 1418 1423 1429 1434 1439 1443 1446 1448 1450 1452 1453 1454 1454 1454 1453 1451 1449 1446 1443 1441 1437 1433
1375 1376 1376 1375 1376 1375 1374 1373 1373 1373 1374 1375 1378 1381 1383 1385 1390 1395 1400 1407 1413 1418 1423 1428 1433 1436 1441 1444 1447 1449 1451 1452 1453 1454 1453 1452 1450 1448 1446 1443 1440 1437 1433 1430
1374 1375 1376 1376 1377 1376 1376 1376 1375 1377 1379 1380 1382 1385 1387 1390 1396 1401 1406 1413 1419 1424 1427 1431 1435 1439 1442 1446 1448 1450 1451 1452 1453 1452 1451 1449 1447 1445 1443 1440 1436 1434 1430 1425
1371 1372 1373 1375 1376 1376 1379 1380 1380 1381 1383 1384 1389 1391 1394 1396 1401 1407 1414 1420 1424 1427 1431 1434 1438 1441 1444 1447 1449 1450 1451 1451 1451 1450 1448 1447 1445 1443 1440 1436 1433 1429 1425 1421
1368 1369 1372 1374 1376 1377 1379 1384 1384 1385 1387 1391 1395 1398 1401 1404 1409 1414 1419 1424 1426 1430 1433 1437 1440 1443 1445 1448 1449 1450 1450 1450 1449 1448 1447 1445 1443 1440 1437 1433 1430 1426 1422 1418
1365 1370 1371 1374 1376 1378 1380 1385 1388 1388 1391 1395 1399 1403 1407 1411 1414 1419 1423 1427 1431 1433 1437 1440 1442 1445 1447 1448 1449 1449 1449 1449 1448 1446 1445 1443 1440 1437 1434 1430 1426 1422 1418 1414
1365 1366 1368 1371 1374 1378 1383 1386 1389 1392 1395 1398 1402 1407 1411 1415 1417 1422 1426 1430 1433 1436 1440 1443 1445 1446 1448 1448 1449 1449 1448 1447 1446 1445 1443 1440 1437 1434 1430 1427 1423 1419 1416 1412
1365 1366 1367 1370 1375 1378 1382 1386 1391 1395 1398 1402 1406 1410 1415 1419 1422 1425 1429 1433 1437 1439 1442 1444 1446 1447 1448 1448 1448 1448 1447 1446 1444 1442 1440 1437 1434 1430 1427 1423 1420 1416 1413 1409
1364 1365 1367 1370 1375 1379 1383 1388 1392 1397 1401 1405 1409 1413 1417 1422 1426 1429 1433 1436 1439 1441 1443 1445 1446 1447 1448 1448 1447 1446 1445 1444 1441 1439 1436 1433 1430 1427 1424 1421 1418 1414 1410 1406
1364 1365 1367 1370 1374 1380 1385 1389 1393 1398 1403 1409 1412 1415 1419 1424 1428 1432 1434 1437 1439 1442 1444 1445 1446 1447 1447 1446 1446 1445 1443 1441 1439 1437 1433 1430 1427 1424 1421 1417 1414 1410 1407 1402
1365 1366 1369 1372 1376 1380 1386 1391 1396 1400 1404 1409 1414 1418 1421 1425 1429 1433 1437 1439 1440 1442 1444 1445 1446 1446 1446 1445 1444 1443 1441 1439 1436 1433 1430 1428 1424 1421 1417 1413 1410 1407 1403 1399
1366 1368 1371 1374 1377 1381 1387 1393 1398 1404 1408 1412 1415 1419 1423 1426 1430 1433 1435 1438 1440 1442 1444 1445 1445 1445 1445 1444 1442 1440 1438 1435 1433 1430 1427 1424 1420 1417 1413 1410 1407 1404 1400 1396
1367 1370 1373 1376 1381 1385 1389 1395 1401 1406 1410 1415 1419 1423 1426 1427 1431 1434 1436 1438 1441 1443 1444 1444 1444 1444 1443 1441 1440 1438 1435 1433 1430 1427 1423 1420 1417 1413 1409 1406 1403 1400 1397 1394
1368 1371 1375 1379 1382 1387 1392 1396 1402 1407 1412 1416 1420 1424 1428 1430 1433 1433 1436 1439 1440 1442 1443 1444 1443 1442 1441 1439 1437 1434 1432 1429 1427 1423 1420 1417 1413 1410 1406 1403 1400 1397 1393 1390
1369 1372 1375 1379 1384 1388 1392 1398 1402 1407 1411 1415 1419 1424 1427 1430 1433 1435 1437 1439 1440 1442 1442 1442 1441 1440 1438 1436 1433 1431 1429 1426 1423 1420 1417 1413 1409 1406 1403 1400 1397 1394 1391 1388
1370 1373 1377 1381 1386 1391 1396 1400 1404 1407 1413 1416 1418 1423 1427 1430 1433 1435 1437 1439 1440 1441 1441 1440 1439 1438 1436 1433 1431 1428 1425 1422 1419 1416 1413 1409 1406 1402 1399 1397 1393 1390 1387 1385